FENGYUN 1C DEB

Satellite information

Favourite Embed

Satellite Type and Status

DEBRISIN ORBIT

Key statistics

Satellite FENGYUN 1C DEB at a glance.

Uptime

9715

Days in orbit

Revolutions

≈ 14.2

Per day

Orbit

SSO

Sun Synchronous Orbit

Inclination

99.2

Latest

Satellite identification and parameters

Extended collection of information and parameters for FENGYUN 1C DEB.

Object identification

Identified? True

Debris? True

Object name: FENGYUN 1C DEB

International designator: 1999-025AHR

Object number (NORAD): 30503

Object ID (CCSDS): 30503

Country: PEOPLES REPUBLIC OF CHINA (PRC)

Current information (Y/N): Y

RCS size: SMALL

Orbital parameters

Period: 101.686 minutes

Inclination: 99.2044 deg

SMA: 7216.621 km

Apoapsis: 844.463 km

Periapsis: 832.508 km

RAAN: 190.8651 deg

Eccentricy: 0.00082831

Argument of periapsis: 264.8278 deg

Mean anomaly: 269.9796 deg

Mean motion: 14.16126109 rev/day

Mean motion (dot): 0.00000762 rev/day2

B* drag term: 0.0004095134 1/REarth

Two-line elements (TLE)

Creation date: Dec. 13, 2025, 5:47 p.m.

Reference frame: TEME

Reference center: EARTH

Epoch: Dec. 13, 2025, 7:49 a.m. UTC

TLE line 0: 0 FENGYUN 1C DEB

TLE line 1: 1 30503U 99025AHR 25347.32608507 .00000762 00000-0 40951-3 0 9995

TLE line 2: 2 30503 99.2044 190.8651 0008283 264.8278 269.9796 14.16126109973546

Live tracking on map

Real-time ground track for satellite FENGYUN 1C DEB.

In-orbit conjunctions

A list of the most updated potential collisions computed for object FENGYUN 1C DEB.

Target Orbit TCA Probability of collision Miss distance Type
DELTA 1 DEB SSO 2025-08-15 07:22:54 0.00151936 57.0 (m) DEBRIS
DMSP 5D-2 F14 DEB SSO 2025-02-19 23:37:07 0.001089298 262.0 (m) DEBRIS
SL-16 R/B LEO 2024-09-01 16:42:41 0.0002342903 134.0 (m) ROCKET BODY

Associated space launch

Chinese polar orbiting meteorological satellite

FENGYUN 1C DEB was lifted into orbit during the mission ‘Long March 4B | Feng Yun 1C’, on board a Long March 4B space rocket.

The launch took place on May 10, 1999, 1:33 a.m. from Launch Complex 7.

For more information about the launch, click the button.

Launch to space Long March 4B | Feng Yun 1C
Long March 4B | Feng Yun 1C

Agency: N/A

Status: Launch Successful

Launch date: May 10, 1999, 1:33 a.m. UTC

Rocket: Long March 4B

Launch pad: Launch Complex 7

Location: Taiyuan Satellite Launch Center, People's Republic of China

...

Latest news about this satellite

There are no fresh news available about this satellite. Check back as we update our databases every day.


Newsletter sign-up

Weekly statistics, charts and insights to help you stay on top of the space industry.